This is the latest recevied weather packets stored in our database for station/object W4CKA. If no packets are shown the sender has not sent any weather packets the latest 10 day(s).
| Time | Temp. | Humidity | Pressure | Rain* | Wind** | Luminosity | Snow |
|---|---|---|---|---|---|---|---|
| 1787498323 | 25° C | 69% | 1059.9 hPa | 0 mm | - | 652 W/m² | - |
| 1787497720 | 23.89° C | 74% | 1059.8 hPa | 0 mm | - | 624 W/m² | - |
| 1787497114 | 24.44° C | 71% | 1059.9 hPa | 0 mm | - | 590 W/m² | - |
| 1787496510 | 24.44° C | 71% | 1059.7 hPa | 0 mm | - | 568 W/m² | - |
| 1787495910 | 23.89° C | 74% | 1059.4 hPa | 0 mm | - | 506 W/m² | - |
| 1787495307 | 23.89° C | 77% | 1059.4 hPa | 0 mm | - | 491 W/m² | - |
| 1787494703 | 23.89° C | 79% | 1059.3 hPa | 0 mm | - | 438 W/m² | - |
| 1787494100 | 23.89° C | 80% | 1059.3 hPa | 0 mm | - | 429 W/m² | - |
| 1787493496 | 23.33° C | 82% | 1059.2 hPa | 0 mm | - | 417 W/m² | - |
| 1787492893 | 22.78° C | 79% | 1059.4 hPa | 0 mm | - | 387 W/m² | - |
| 1787492290 | 23.33° C | 84% | 1059.4 hPa | 0 mm | - | 313 W/m² | - |
| 1787491686 | 22.78° C | 86% | 1059.1 hPa | 0 mm | - | 333 W/m² | - |
| 1787491082 | 22.78° C | 88% | 1059.1 hPa | 0 mm | - | 165 W/m² | - |
| 1787490478 | 21.67° C | 95% | 1059.1 hPa | 0 mm | - | 177 W/m² | - |
| 1787489877 | 20.56° C | 99% | 1058.8 hPa | 0 mm | - | 239 W/m² | - |
| 1787489274 | 20° C | 99% | 1058.9 hPa | 0 mm | - | 237 W/m² | - |
| 1787488671 | 19.44° C | 99% | 1058.9 hPa | 0 mm | - | 111 W/m² | - |
| 1787488070 | 17.78° C | 99% | 1058.7 hPa | 0 mm | - | 105 W/m² | - |
| 1787487469 | 17.78° C | 99% | 1058.8 hPa | 0 mm | - | 43 W/m² | - |
| 1787486864 | 17.22° C | 99% | 1058.7 hPa | 0 mm | - | 53 W/m² | - |
| 1787486264 | 17.22° C | 99% | 1058.8 hPa | 0.51 mm | - | 31 W/m² | - |
| 1787485661 | 17.22° C | 99% | 1058.6 hPa | 0 mm | - | 26 W/m² | - |
| 1787485057 | 16.67° C | 99% | 1058.5 hPa | 0 mm | - | 22 W/m² | - |
| 1787484457 | 16.67° C | 99% | 1058.5 hPa | 0 mm | - | 16 W/m² | - |
| 1787483853 | 16.67° C | 99% | 1058.5 hPa | 0 mm | - | 10 W/m² | - |
* Rain latest hour (hover to see other rain measurements)
** Current wind speed in m/s (hover to see current wind gust speed)